Regional Weather Roundup
Issued by NWS Little Rock, AR

Home | Current Version | Previous Version | Text Only | Print | Product List | Glossary Off
Versions: 1 2 3 4 5 6 7 8 9 10 11 12 13 14 15 16 17 18 19 20 21 22 23 24 25 26 27 28 29 30 31 32 33 34 35 36 37 38 39 40 41 42 43 44 45 46 47 48 49 50

000
ASUS44 KLZK 201905
RWRLZK

WEATHER ROUNDUP FOR ARKANSAS
NATIONAL WEATHER SERVICE LITTLE ROCK AR
100 PM CST SAT DEC 20 2014

NOTE: "FAIR" INDICATES FEW OR NO CLOUDS BELOW 12,000 FEET WITH NO
SIGNIFICANT WEATHER AND/OR OBSTRUCTIONS TO VISIBILITY.

ARZ001-003-010-029-202000-
NORTHWEST ARKANSAS

CITY           SKY/WX    TMP DP  RH WIND       PRES   REMARKS
FAYETTEVILLE   CLOUDY    42  37  82 CALM      30.20F
FORT SMITH     CLOUDY    46  40  79 NE6       30.22F HAZE
HARRISON       CLOUDY    42  39  89 SE5       30.20F
BENTONVILLE    CLOUDY    45  36  70 S3        30.20F
ROGERS         CLOUDY    42  37  82 SW6       30.20F
SILOAM SPGS    CLOUDY    43  36  75 SW5       30.21F
HIGHFILL       CLOUDY    43  38  82 SW6       30.19F
SPRINGDALE     CLOUDY    43  36  75 S5        30.22F
$$

ARZ004-005-016-202000-
NORTH CENTRAL ARKANSAS

CITY           SKY/WX    TMP DP  RH WIND       PRES   REMARKS
BATESVILLE     CLOUDY    45  34  65 E3        30.24F
FLIPPIN        CLOUDY    43  36  75 CALM      30.22S
MTN HOME       CLOUDY    41  38  89 CALM      30.21F FOG
$$

ARZ040-041-202000-
WEST CENTRAL ARKANSAS

CITY           SKY/WX    TMP DP  RH WIND       PRES   REMARKS
MENA           CLOUDY    50  43  76 CALM      30.20F
MOUNT IDA      CLOUDY    47  40  76 CALM      30.18F
$$

ARZ009-017-025-026-028-202000-
NORTHEAST ARKANSAS

CITY           SKY/WX    TMP DP  RH WIND       PRES   REMARKS
CORNING        FAIR      43  34  70 CALM      30.25F
JONESBORO      CLOUDY    44  36  73 E6        30.25F
NEWPORT        CLOUDY    43  36  76 CALM      30.26F
WALNUT RIDGE   CLOUDY    43  34  70 CALM      30.24F
BLYTHEVILLE    CLOUDY    45  34  65 CALM      30.26F
$$

ARZ022-023-033-042-044-202000-
CENTRAL ARKANSAS

CITY           SKY/WX    TMP DP  RH WIND       PRES   REMARKS
LITTLE ROCK    CLOUDY    47  35  63 CALM      30.24F
N LITTLE ROCK  CLOUDY    46  38  74 E6        30.24F
JACKSONVILLE   CLOUDY    46  36  68 N1        30.24F
SEARCY         CLOUDY    45  36  70 NE3       30.26F
HOT SPRINGS    CLOUDY    48  38  68 CALM      30.22F
RUSSELLVILLE   CLOUDY    46  37  71 CALM      30.23F
CLINTON        CLOUDY    46  37  71 CALM      30.24F HAZE
$$

ARZ036-202000-
EAST ARKANSAS

CITY           SKY/WX    TMP DP  RH WIND       PRES   REMARKS
WEST MEMPHIS   CLOUDY    46  34  62 N6        30.23F
$$

ARZ050-053-066-070-073-202000-
SOUTHWEST ARKANSAS

CITY           SKY/WX    TMP DP  RH WIND       PRES   REMARKS
ARKADELPHIA    CLOUDY    48  42  80 NE3       30.24F
CAMDEN         SUNNY     55  37  50 MISG      30.22F
TEXARKANA      CLOUDY    48  41  76 CALM      30.21F
EL DORADO      MOSUNNY   51  40  65 VRB3      30.22F
DE QUEEN       CLOUDY    47  42  83 CALM      30.21F HAZE
$$

ARZ056-057-069-202000-
SOUTHEAST ARKANSAS

CITY           SKY/WX    TMP DP  RH WIND       PRES   REMARKS
PINE BLUFF     CLOUDY    47  36  65 E3        30.24F
STUTTGART      CLOUDY    45  34  65 NE3       30.25F
MONTICELLO     SUNNY     52  37  56 E9        30.20F

$$





USA.gov is the U.S. government's official web portal to all federal, state and local government web resources and services.